GEFSSGP_500_meanwind_000.txt.gz
Wind_Speed
13 14 15 17 16 15 15 18 20 14 12 14 15 14 13 14 14 15 15 13 14 20 21 19 18 19 19 18 16 14 12 10 10 10 10 11 11 11 10 10 11 12 12 12 11 9 7 6 4
12 13 16 17 15 18 16 17 24 19 13 12 13 13 13 14 15 14 12 10 12 16 17 15 15 16 17 17 16 14 12 11 10 9 9 10 10 10 10 12 12 12 12 12 11 10 9 8 6
13 12 16 17 13 13 12 9 17 18 18 15 13 12 11 13 14 13 10 8 9 11 12 12 12 13 14 15 15 15 14 12 11 9 8 8 9 10 10 12 13 12 11 11 11 9 9 8 8
15 14 16 17 14 13 13 8 9 17 19 19 16 8 9 11 11 10 9 8 7 7 8 9 10 10 10 11 13 13 14 13 12 11 10 8 8 8 10 12 13 13 11 9 9 9 9 7 6
17 17 19 18 16 13 11 9 11 15 21 18 13 8 10 10 9 8 7 7 6 5 4 5 8 8 9 8 9 10 12 12 12 12 11 9 8 9 10 12 12 12 11 8 8 8 8 8 7
20 18 19 18 19 16 14 8 11 8 15 17 13 13 14 11 8 6 7 7 7 7 6 3 1 4 5 6 7 8 9 10 10 10 11 11 9 8 9 11 12 12 11 8 7 8 9 9 9
23 21 21 16 14 16 14 13 13 17 19 15 17 15 14 12 10 9 7 7 8 9 9 7 5 3 2 3 4 5 5 6 7 8 8 8 8 8 9 10 11 12 13 10 7 8 9 9 9
26 23 23 17 15 15 13 14 14 22 22 24 15 14 12 9 6 9 9 7 7 8 10 10 10 9 9 8 6 6 5 5 6 6 7 7 5 5 7 9 10 10 10 10 8 7 7 7 7
29 24 26 25 23 25 15 15 22 24 18 15 16 19 13 11 8 10 10 7 7 9 10 11 14 16 15 14 13 11 10 9 9 10 9 9 7 6 6 8 10 11 10 8 6 7 6 6 7
31 26 30 32 30 32 28 25 28 27 24 20 19 20 16 16 13 19 20 13 8 9 11 11 13 17 17 16 16 15 14 13 12 12 14 14 13 11 10 9 9 10 10 8 7 7 8 7 8
32 28 32 38 37 38 37 35 35 31 30 26 21 18 24 23 21 25 30 19 12 11 13 13 15 17 17 15 15 16 16 15 14 14 14 16 16 15 14 12 11 11 10 9 9 9 9 10 8
32 31 36 43 43 43 44 42 41 37 35 33 26 22 21 24 23 22 26 26 18 16 18 18 19 20 15 12 11 12 11 11 10 12 16 19 19 18 17 16 16 14 12 12 11 11 12 11 10
34 32 35 41 45 46 46 46 44 40 39 40 32 26 26 25 27 19 16 18 24 24 22 20 21 20 13 11 10 10 9 10 11 14 16 17 17 16 18 18 18 18 16 16 15 14 14 13 13
37 36 37 40 44 46 47 46 44 43 41 41 38 33 28 24 21 13 19 24 31 31 25 23 22 19 15 13 12 11 13 15 16 17 17 17 16 15 16 17 18 18 18 18 19 20 19 18 17
35 34 34 37 41 44 44 44 42 38 40 41 38 33 28 26 26 23 27 33 32 30 26 28 29 22 18 18 16 15 15 15 17 17 18 18 18 17 16 16 16 17 18 20 22 24 23 24 22
33 32 29 30 34 39 43 44 42 39 40 42 40 37 34 31 27 24 25 29 31 32 31 29 33 30 24 24 23 22 21 19 17 16 18 18 19 20 21 19 18 19 20 21 22 24 24 25 27
28 29 32 32 33 36 41 39 39 37 38 41 41 38 37 36 31 25 23 22 27 33 34 29 31 29 25 26 25 23 23 22 19 18 18 18 18 21 22 22 21 22 22 20 20 20 22 24 26
28 31 32 33 36 39 39 37 39 36 36 37 40 39 35 32 29 25 27 25 24 20 21 27 30 27 26 25 25 26 27 26 24 24 23 22 21 21 22 22 22 23 25 25 23 22 22 24 25
32 33 32 32 33 36 37 34 39 42 42 41 42 41 37 30 26 21 23 24 21 18 21 29 28 29 33 30 29 33 32 30 27 26 25 23 23 24 25 26 27 28 28 27 26 24 23 25 26
32 33 32 32 33 34 35 34 34 41 42 44 44 43 40 35 31 29 32 31 27 26 31 32 27 31 44 39 36 39 35 32 27 24 24 23 25 27 29 29 28 27 27 26 23 23 23 24 26
36 35 33 33 32 33 33 34 35 38 42 44 44 44 43 42 40 36 37 41 37 36 42 41 34 44 51 47 42 42 36 28 25 26 27 26 27 30 30 28 28 27 25 24 21 21 22 25 25
36 36 35 34 34 35 36 37 37 38 40 42 42 42 42 42 42 45 46 47 47 47 46 44 41 43 47 42 38 35 31 24 27 30 29 28 28 30 30 28 28 29 27 25 24 22 22 23 24
32 33 33 32 34 36 38 39 38 39 41 42 41 42 44 44 42 43 42 42 46 48 45 41 43 48 51 48 38 37 35 31 30 31 30 29 29 30 31 30 30 32 29 28 26 23 21 21 23
26 28 25 24 29 34 34 38 39 38 38 38 40 43 41 35 36 35 34 33 35 35 39 39 47 47 50 52 44 39 38 35 32 32 32 32 33 35 34 34 34 35 32 30 26 22 22 21 21
28 27 24 22 25 28 27 34 38 36 31 30 33 35 34 34 32 30 33 34 38 39 41 43 44 34 32 31 30 33 34 35 35 35 36 36 37 38 38 37 36 37 37 35 28 22 23 22 21
28 27 27 26 27 26 27 30 32 32 28 26 27 28 32 37 42 41 39 36 38 37 25 25 25 28 29 32 32 34 36 39 39 39 39 39 39 39 39 38 37 37 39 39 35 27 25 24 23
23 23 23 26 27 26 28 29 27 28 24 24 27 28 29 37 40 42 39 38 40 42 38 33 25 21 22 29 33 35 37 39 39 39 39 39 39 38 36 36 36 36 38 37 32 27 26 24 25
20 20 22 24 26 25 26 27 28 28 25 26 31 31 25 27 35 41 40 30 22 25 26 28 21 20 23 27 29 30 31 33 34 35 35 34 34 34 32 33 35 35 35 34 31 27 26 26 26
20 20 23 23 23 24 25 27 26 26 27 26 32 35 29 32 41 41 35 34 20 17 19 24 27 30 29 29 30 31 30 31 31 31 32 33 34 34 33 33 34 32 31 31 31 31 28 27 27
26 24 24 25 24 19 23 25 23 21 27 28 30 27 28 26 26 19 13 17 21 23 23 26 28 30 30 30 30 33 33 33 32 31 32 33 33 33 31 32 31 30 29 28 29 29 28 28 27

GEFSSGP_500_meanwind_006.txt.gz
Wind_Speed
13 16 16 15 13 13 13 12 8 6 9 9 8 9 13 14 13 13 14 15 15 14 15 17 18 17 17 17 17 16 15 14 13 13 13 14 15 15 16 15 14 12 11 10 10 10 9 8 6
12 14 16 16 15 15 15 13 12 8 9 10 11 12 13 13 12 11 12 13 12 11 11 14 16 17 18 19 18 17 16 14 13 11 12 12 13 14 15 15 14 11 10 9 9 9 8 8 6
11 14 16 17 17 17 15 14 14 12 10 11 13 13 13 11 10 9 9 10 9 7 8 10 12 14 16 17 17 17 16 15 13 11 10 10 11 12 13 13 13 11 9 9 9 8 7 6 5
12 13 15 18 19 16 13 12 13 13 11 9 10 10 11 10 8 6 5 5 4 5 6 7 8 10 13 14 14 14 13 14 14 13 10 9 10 11 12 12 12 12 10 9 8 8 6 4 4
15 14 15 18 20 18 15 10 8 8 10 7 5 7 9 9 7 4 2 2 1 1 4 6 7 8 9 10 10 10 10 10 11 11 12 10 9 9 9 10 10 11 10 7 6 6 6 5 3
18 16 15 19 22 20 18 12 7 6 8 6 5 7 8 7 5 2 4 5 6 5 5 5 6 7 8 9 9 8 8 8 8 8 8 8 8 7 7 7 8 9 9 7 5 4 4 4 3
20 19 18 22 23 21 19 14 11 8 8 9 9 10 10 9 7 5 6 7 9 10 10 9 8 9 9 10 10 10 9 9 9 8 7 7 6 6 6 7 7 8 9 8 6 4 4 4 4
22 21 22 26 25 23 21 18 15 13 12 12 12 12 11 11 10 7 5 6 8 10 11 12 12 12 11 12 13 13 12 11 11 11 9 8 7 7 8 9 9 8 9 8 6 5 5 5 5
24 24 26 29 28 26 24 22 18 16 15 14 13 14 13 12 10 9 5 5 9 11 12 12 13 13 13 13 14 15 15 14 13 12 11 10 10 9 11 11 11 10 10 9 7 6 7 7 8
25 26 30 33 31 29 28 25 21 18 15 14 15 16 14 13 13 12 9 7 9 13 15 16 14 14 15 16 17 17 16 15 14 13 13 13 12 13 13 13 13 12 11 11 10 9 10 10 10
26 29 33 36 35 33 31 29 25 21 18 15 16 17 15 16 18 19 17 15 15 17 19 20 19 19 21 21 20 20 17 15 14 14 14 13 13 14 13 12 12 13 13 12 13 14 13 12 12
28 31 35 39 38 37 36 33 30 26 22 19 17 17 15 17 21 22 21 20 22 22 22 21 20 22 26 27 25 22 20 17 14 13 12 12 13 13 13 13 14 15 15 13 14 16 15 14 14
31 33 37 41 41 40 39 38 35 31 27 23 18 15 15 17 20 21 21 19 19 18 17 18 20 24 27 28 27 23 20 19 17 15 15 15 14 14 15 16 17 17 16 15 15 15 15 15 16
34 34 38 41 44 43 42 41 39 35 32 27 23 18 16 17 18 20 20 19 17 15 15 17 20 25 28 27 24 22 20 20 18 17 17 17 16 16 17 18 19 18 17 16 15 15 15 15 17
33 33 37 41 44 45 44 43 42 38 36 32 27 25 24 21 18 19 20 20 19 19 19 20 23 27 28 27 24 22 22 22 21 19 18 19 19 19 19 19 20 21 20 19 19 19 18 16 17
29 31 34 39 42 44 45 45 43 41 39 36 33 29 26 24 21 20 21 22 22 21 22 24 25 27 30 31 29 25 24 23 21 19 17 18 19 20 20 20 22 23 23 22 20 20 20 18 18
29 29 31 35 40 44 45 45 43 42 40 38 36 32 28 27 24 23 24 25 25 23 24 25 27 29 32 35 34 30 27 24 21 19 20 20 21 22 23 24 25 25 24 23 21 21 22 21 21
28 29 31 33 37 39 42 41 41 42 43 41 39 35 32 27 22 21 23 25 26 25 26 28 30 32 34 36 32 28 28 27 24 23 23 23 24 25 26 27 27 26 24 23 24 25 26 24 23
28 29 30 32 34 35 36 35 35 36 38 38 36 33 31 29 27 24 25 27 26 26 28 30 32 33 34 35 32 31 31 31 30 27 26 26 28 29 28 29 28 26 25 25 26 28 28 26 23
28 28 29 31 31 32 31 31 31 32 33 35 34 34 34 34 32 30 29 29 29 29 31 32 33 33 36 38 39 37 36 35 34 31 31 32 32 31 30 30 28 28 28 28 28 29 27 24 21
30 29 29 30 31 31 31 32 31 32 33 33 33 32 33 32 31 30 30 29 30 31 33 35 35 36 37 39 42 42 41 41 39 38 36 36 35 34 31 30 28 27 28 28 28 27 26 24 23
34 33 33 32 32 33 33 36 37 36 36 35 32 30 30 29 29 28 27 29 30 32 35 38 41 42 42 42 44 47 47 47 47 45 41 38 36 33 30 28 27 27 28 28 28 27 26 26 26
35 37 38 38 38 38 37 39 40 40 40 39 36 33 30 29 29 28 29 31 33 33 35 40 45 48 49 49 49 49 49 49 49 46 43 38 32 28 27 27 28 29 29 29 28 28 28 29 29
37 39 40 40 41 43 41 42 44 44 43 41 40 37 33 32 32 33 35 36 37 36 36 39 44 48 51 52 48 50 51 49 47 44 41 37 34 30 29 29 30 31 31 31 32 32 33 33 31
35 35 35 36 36 38 38 40 43 42 43 42 41 39 36 34 34 36 37 39 40 41 41 40 42 45 46 47 46 44 49 50 45 38 35 35 35 34 32 33 33 34 34 35 36 36 35 34 33
31 31 31 32 32 32 32 35 36 36 37 37 38 37 37 36 36 36 37 39 40 41 41 40 38 38 38 36 33 30 32 38 38 35 33 33 35 35 34 35 36 37 38 38 38 38 36 34 34
27 28 29 30 31 32 33 33 34 32 32 33 33 33 34 34 34 35 34 33 33 34 34 34 34 33 30 26 26 25 23 21 23 25 28 32 35 36 37 38 38 38 38 38 38 38 37 34 33
21 22 24 27 28 29 31 31 32 32 33 32 31 31 31 30 30 29 28 27 27 27 27 25 23 22 21 21 21 21 19 18 20 24 27 30 31 32 33 33 34 34 34 35 35 36 35 34 33
23 23 24 24 24 26 29 29 27 28 28 28 28 29 29 28 27 26 26 26 25 25 23 19 17 16 17 17 18 18 19 20 22 24 25 26 27 28 29 29 29 30 31 33 34 34 33 33 33
29 28 27 27 26 27 27 28 27 28 26 25 25 25 25 26 25 24 25 25 24 22 20 17 15 16 18 19 20 22 22 23 24 26 27 28 28 28 29 29 29 29 29 30 30 30 31 31 31

GEFSSGP_500_meanwind_012.txt.gz
Wind_Speed
11 12 10 8 4 2 2 1 0 3 5 7 9 11 12 14 15 17 18 20 19 19 19 17 15 14 13 13 12 11 11 12 14 14 14 14 14 14 13 12 11 10 10 10 9 8 6 5 3
10 12 12 10 6 6 5 3 2 4 6 7 9 10 10 11 12 14 15 17 18 17 17 16 16 15 14 13 12 11 9 9 10 11 11 11 11 12 12 12 10 9 8 8 8 7 6 5 4
10 11 13 12 10 9 8 6 3 5 7 8 8 10 9 9 9 11 12 14 15 15 14 14 14 13 12 11 11 10 9 9 8 8 8 9 10 10 11 11 10 8 7 7 7 7 6 6 6
9 10 12 13 13 11 10 7 5 5 8 9 9 10 9 9 8 8 9 10 12 12 11 11 11 11 10 9 9 8 8 8 8 8 8 8 8 9 9 8 8 7 6 5 5 5 6 7 7
11 10 11 12 12 12 10 7 4 5 9 10 12 11 11 9 8 6 6 6 7 7 6 6 7 8 8 8 9 9 9 8 7 7 6 5 5 5 6 6 7 7 6 5 5 4 5 6 7
13 12 11 12 12 11 10 7 4 5 9 12 14 13 12 10 8 6 5 5 6 5 4 3 3 4 5 6 7 8 8 7 7 6 5 3 3 3 4 5 7 7 7 6 5 4 5 6 7
16 15 14 13 12 11 9 6 4 5 9 13 14 14 13 12 10 8 6 5 5 4 2 1 2 3 4 5 6 7 8 8 8 8 8 6 5 5 5 6 6 7 7 7 6 5 6 7 7
19 18 17 16 14 12 8 7 7 7 7 9 10 10 12 12 11 9 6 5 4 3 2 1 1 2 3 4 5 6 8 9 10 11 11 10 9 8 7 7 7 7 7 8 8 7 8 8 8
22 21 21 20 18 16 12 10 9 8 7 7 8 9 10 12 12 10 8 6 6 5 4 4 4 4 4 5 6 7 8 9 11 12 13 13 13 11 10 9 8 7 7 8 9 8 9 10 10
24 23 25 24 21 18 16 14 12 11 10 10 10 11 12 13 13 12 11 10 9 8 7 8 9 10 10 10 10 11 11 11 11 12 14 14 14 13 13 11 10 8 8 8 10 10 10 10 11
28 27 27 25 24 22 20 18 17 15 14 13 13 12 13 13 14 14 13 13 14 13 13 14 16 17 16 15 14 13 14 14 13 14 14 14 14 13 13 12 11 10 10 10 12 12 12 12 11
31 30 29 28 26 25 24 22 21 20 19 17 15 13 13 14 15 16 16 17 17 17 17 18 19 19 18 17 16 15 16 16 15 15 15 15 15 15 15 13 12 11 12 12 13 13 14 13 12
34 33 32 31 29 28 27 26 25 24 22 20 18 16 15 14 16 17 18 19 20 20 20 20 20 19 18 18 19 18 18 17 17 16 16 16 17 17 16 14 13 14 14 14 13 14 15 15 14
37 36 35 34 33 31 30 30 28 28 26 24 22 20 20 19 19 19 20 21 22 23 23 23 22 21 21 21 22 22 22 21 19 19 18 18 19 19 18 18 16 16 16 15 15 16 17 17 16
35 36 36 37 36 35 34 33 32 32 31 29 28 26 25 25 24 24 24 25 25 25 25 25 25 24 24 25 26 26 26 25 24 23 22 21 21 21 20 20 19 18 17 17 17 18 19 18 18
32 34 35 39 38 38 36 36 37 37 35 34 33 32 31 30 29 29 29 29 29 28 28 28 28 27 28 29 30 30 31 31 29 28 26 25 25 24 22 22 22 20 20 20 20 20 20 20 19
30 31 34 39 40 40 39 38 41 40 39 38 37 36 35 33 32 32 32 32 32 32 31 31 31 31 32 33 34 34 35 36 36 34 31 30 29 27 25 23 23 22 22 22 22 23 23 22 21
28 29 32 36 39 40 41 42 43 41 41 41 40 39 38 36 34 33 33 34 34 34 34 34 34 35 36 37 38 38 39 41 42 40 37 35 32 30 27 24 24 23 23 24 24 25 25 24 24
29 29 30 34 36 36 40 42 42 41 42 43 43 42 41 39 37 36 37 38 38 37 36 36 37 38 39 40 41 42 43 44 44 44 42 39 35 32 30 28 26 25 25 26 26 26 26 25 25
28 29 30 33 32 33 36 38 39 39 41 42 42 42 41 40 38 38 38 39 39 38 36 36 38 40 42 43 44 45 45 43 43 42 42 42 39 35 32 31 29 28 28 28 28 27 26 25 24
28 29 30 31 31 31 33 34 35 36 37 38 39 39 39 38 37 36 36 36 37 37 38 39 40 42 44 45 46 48 48 48 45 44 42 41 41 39 36 35 33 32 32 31 30 29 26 24 23
29 31 31 31 31 31 34 33 34 35 35 36 36 36 36 36 36 36 35 36 36 38 40 41 43 44 46 48 49 50 51 51 50 47 43 40 40 40 39 37 36 35 34 32 30 27 27 26 24
34 34 34 34 34 34 35 35 32 38 36 37 36 35 35 35 36 36 37 38 39 41 42 44 46 47 49 51 52 53 54 55 56 54 52 48 44 43 42 39 36 35 33 31 28 27 28 28 27
37 37 39 40 40 41 38 39 37 39 41 39 38 37 37 37 37 38 39 41 42 43 45 47 48 50 52 53 55 56 57 58 58 58 56 54 51 48 44 42 39 36 34 32 30 29 29 30 30
37 39 40 42 44 43 41 44 42 47 44 42 42 42 42 41 41 41 42 42 43 45 47 48 50 51 52 54 56 57 58 58 56 54 52 51 49 48 47 44 40 37 35 34 33 32 32 32 32
30 34 38 41 39 36 44 46 46 47 46 46 46 47 47 46 46 45 44 44 44 45 46 48 49 49 50 52 53 53 53 52 49 46 43 41 40 40 39 39 39 38 35 35 33 33 33 33 34
27 30 33 38 40 40 41 43 43 41 43 44 45 46 46 46 45 44 43 43 43 43 44 45 46 46 46 46 45 45 44 42 39 37 34 32 31 31 33 34 35 35 33 32 32 33 33 34 35
25 26 27 31 35 38 38 39 39 37 38 39 40 41 42 42 40 39 39 39 39 39 40 41 41 41 40 39 38 37 36 33 30 29 28 27 27 28 29 31 31 30 30 30 31 33 33 34 33
28 27 28 30 32 32 33 34 35 32 33 34 35 36 38 39 39 38 37 36 35 36 36 36 36 35 34 33 33 32 31 29 27 26 26 26 26 26 27 27 28 29 30 30 31 31 31 31 30
34 33 33 33 32 32 32 33 31 30 30 30 30 32 35 36 37 37 37 35 35 35 35 34 33 32 32 31 31 30 28 27 26 26 26 26 26 26 27 27 28 29 30 30 30 31 31 31 30

GEFSSGP_500_meanwind_018.txt.gz
Wind_Speed
8 7 6 7 6 9 9 2 3 1 4 6 8 9 12 11 12 14 14 15 14 13 13 12 12 12 11 10 9 9 9 10 9 9 10 10 10 10 10 10 10 10 11 11 12 11 10 10 10
7 7 6 6 5 8 2 3 4 3 2 5 7 9 10 10 11 13 14 14 15 14 13 13 11 11 10 9 7 7 7 7 6 6 7 7 8 8 9 10 9 9 10 10 11 11 11 10 10
6 7 7 6 6 5 3 5 5 5 5 6 8 8 9 9 9 11 12 13 14 14 13 12 11 10 10 9 8 7 7 7 6 5 5 5 5 5 6 8 8 9 9 10 10 10 11 11 11
4 6 8 7 6 6 9 7 6 7 8 9 10 10 10 9 9 8 9 10 10 11 11 10 9 9 8 8 7 7 7 6 6 5 5 4 3 3 4 6 7 7 8 9 9 9 10 11 11
3 5 7 8 4 6 10 8 7 8 9 11 12 12 11 10 10 8 7 7 6 7 7 6 6 5 5 5 5 4 5 5 5 6 6 6 5 5 5 6 7 7 7 8 8 8 9 10 10
4 5 6 6 3 8 11 8 7 9 11 12 13 13 13 12 11 10 8 7 5 4 4 4 3 2 1 2 2 3 3 4 5 6 7 8 8 7 7 7 8 8 7 7 8 8 9 9 10
9 7 6 4 2 6 13 10 8 10 12 14 13 14 14 14 13 12 10 8 7 5 4 4 3 2 2 2 3 3 4 4 5 6 7 8 9 10 10 10 10 9 9 8 8 8 9 9 10
13 11 9 6 3 7 14 10 9 9 11 12 14 14 15 15 15 14 13 11 9 7 6 5 5 4 4 4 5 5 5 6 7 7 8 9 10 11 12 12 12 12 11 10 9 9 10 10 11
18 15 11 7 3 10 16 13 11 11 11 12 13 12 13 14 14 15 14 13 11 9 8 7 7 6 7 7 8 9 9 9 9 9 10 10 11 11 12 13 13 13 13 12 11 11 11 12 12
22 18 14 11 11 13 18 16 14 13 12 12 12 11 11 13 14 15 15 15 14 13 11 10 9 10 10 11 13 13 13 13 12 12 12 12 12 11 12 12 13 14 13 12 11 12 13 13 13
27 23 21 17 20 24 20 15 15 16 15 15 15 14 13 13 14 15 17 17 16 15 14 14 14 15 15 16 16 16 15 14 14 15 14 15 14 13 13 13 14 14 14 13 12 13 13 13 13
30 28 27 24 24 24 23 20 18 18 18 18 18 16 15 14 14 15 17 18 19 18 17 17 18 18 19 19 18 18 17 17 16 17 17 18 18 17 16 16 16 15 15 15 14 13 12 12 12
33 31 31 30 29 25 23 24 22 20 24 22 21 18 18 17 16 16 18 19 19 20 19 19 20 20 20 21 21 21 21 20 20 20 21 21 22 22 21 20 20 19 18 16 16 15 15 14 14
35 35 34 33 32 29 27 26 25 24 27 27 26 23 23 22 20 20 20 20 20 21 21 21 21 21 22 23 23 24 24 24 24 24 24 25 26 27 27 26 25 24 22 21 19 18 17 17 17
38 39 37 35 34 32 30 29 27 27 30 31 30 28 28 27 25 24 24 24 24 23 23 23 24 24 25 25 26 27 28 27 27 28 28 29 30 32 33 32 31 29 27 26 24 22 21 21 20
34 36 37 35 36 35 33 31 26 28 32 34 33 32 32 31 30 29 28 28 28 28 27 28 28 29 29 29 30 30 31 31 31 32 32 33 35 36 37 37 36 34 32 30 29 26 25 24 22
30 31 31 30 30 31 33 33 25 26 33 36 36 36 35 35 34 34 33 33 33 32 32 33 33 33 33 33 33 34 34 34 34 35 35 36 38 39 40 39 39 38 36 34 32 30 27 26 24
19 20 23 24 22 27 30 30 27 28 34 36 38 39 39 39 38 38 37 37 36 36 36 37 37 37 37 37 37 37 37 37 37 37 38 39 40 41 41 42 40 38 36 35 34 32 30 28 26
22 24 22 19 18 26 31 32 31 31 35 37 40 42 40 41 41 40 41 41 40 40 40 40 40 40 40 39 39 39 39 38 38 39 40 42 44 44 44 42 40 39 37 36 35 33 30 30 30
28 29 27 22 21 29 36 36 33 34 36 41 44 45 43 40 39 41 43 44 45 44 44 43 43 43 43 43 43 42 41 40 40 40 42 44 45 46 46 45 43 42 41 40 36 35 34 32 32
29 28 28 28 24 27 37 40 37 36 40 46 47 46 46 45 44 44 45 46 47 47 47 46 45 45 45 45 45 44 44 43 42 42 43 45 48 48 48 47 46 46 44 42 39 37 36 34 33
28 24 27 29 31 30 30 32 32 32 37 43 45 45 46 46 45 44 45 46 47 48 48 47 46 45 45 45 45 45 45 45 45 46 47 48 50 50 50 49 49 48 46 43 41 39 37 35 34
28 29 32 32 34 36 35 34 32 27 33 39 41 40 40 42 43 43 43 44 45 46 47 46 46 45 45 45 45 46 47 47 49 50 50 51 52 52 51 51 50 48 45 42 40 38 37 35 34
33 34 37 37 37 39 37 36 37 31 35 42 44 41 37 37 39 41 42 42 43 44 45 45 45 45 45 45 46 47 48 50 51 52 53 54 54 53 52 50 48 46 43 40 39 37 36 35 35
27 32 36 38 39 41 34 35 36 37 43 47 48 45 41 38 37 38 40 41 42 43 44 45 45 46 47 47 48 49 50 52 53 54 55 55 54 52 49 47 45 43 40 39 37 35 35 34 35
20 24 29 34 35 35 33 36 40 42 46 49 51 51 50 49 47 45 44 43 44 44 45 47 48 49 49 50 51 52 53 54 54 54 54 53 51 49 46 43 42 40 38 37 35 34 35 36 35
26 28 30 34 36 37 36 38 42 43 45 48 52 53 53 52 51 51 50 49 48 48 49 49 50 51 52 53 53 54 54 54 54 53 51 49 47 44 42 40 39 38 37 36 37 36 36 37 37
29 31 33 36 39 40 39 35 40 44 46 46 48 52 53 52 52 52 51 50 49 49 49 50 51 52 52 52 51 51 51 50 49 48 46 44 42 40 38 36 36 35 35 35 37 38 37 37 36
29 30 31 35 38 40 40 38 38 40 43 45 43 40 44 49 50 48 47 46 46 46 46 46 46 46 46 46 45 45 44 44 42 41 40 39 37 36 34 33 32 32 31 31 32 34 33 31 29
26 29 33 35 36 37 40 41 40 41 43 45 46 42 38 38 40 40 40 41 42 42 42 42 42 42 42 41 41 40 40 39 37 36 35 35 34 33 31 31 30 30 30 29 28 26 26 25 24

GEFSSGP_500_meanwind_024.txt.gz
Wind_Speed
14 13 12 11 8 5 4 6 7 7 9 10 9 11 12 11 11 13 14 13 14 14 15 14 14 13 12 11 9 8 7 7 7 7 7 8 9 10 11 12 13 13 14 14 14 13 13 12 11
13 12 11 9 6 6 5 4 3 5 8 7 5 8 11 11 10 13 12 12 13 13 13 13 12 10 9 8 7 6 5 5 5 6 6 6 6 7 9 10 11 12 12 13 13 12 12 12 11
13 13 12 9 7 7 3 2 2 1 4 5 5 5 9 9 10 11 11 12 12 12 11 11 10 9 8 7 6 5 4 3 4 4 5 5 5 6 7 9 10 11 11 12 12 12 11 12 11
13 13 12 10 9 5 1 1 1 3 1 4 6 6 7 8 8 9 9 10 10 10 9 8 7 6 5 4 3 2 2 2 3 4 5 5 5 6 7 8 9 10 11 12 12 12 12 11 11
11 12 12 10 10 4 1 3 3 3 4 6 8 9 8 8 8 8 8 7 7 7 7 6 5 4 2 1 0 1 2 3 4 5 5 6 6 7 8 9 10 11 12 12 13 13 13 12 12
9 10 10 9 10 7 2 4 6 5 5 7 9 10 11 10 9 9 7 6 5 4 4 4 3 2 2 2 2 3 4 5 6 7 8 8 8 9 10 10 11 11 12 13 14 14 14 14 13
7 7 9 9 10 6 3 5 8 7 6 7 10 11 12 12 11 11 9 7 6 5 5 4 4 4 4 4 5 5 6 7 8 9 9 10 10 11 11 11 12 12 13 14 15 15 15 15 15
9 9 11 13 12 7 4 8 11 10 7 7 10 12 13 12 12 12 12 9 9 8 8 7 6 6 6 6 6 7 8 9 10 11 10 11 11 12 12 12 12 13 13 14 15 15 15 16 16
12 12 14 15 15 11 7 11 12 11 8 7 9 12 13 13 12 12 13 12 11 11 10 9 8 8 8 7 8 9 10 11 11 11 11 11 11 11 12 12 12 13 14 15 15 15 15 16 17
17 16 17 19 18 17 13 12 13 11 9 9 10 12 13 12 12 12 13 13 13 13 12 12 11 11 11 11 11 12 12 12 11 10 10 10 10 11 11 12 13 14 15 15 16 16 16 17 18
21 19 22 23 23 21 18 15 15 13 10 11 13 13 13 13 12 12 12 14 14 14 14 14 14 14 14 15 15 14 13 12 11 10 10 10 10 11 12 13 14 15 16 16 17 17 17 18 18
26 24 25 26 27 25 22 19 20 18 14 14 16 16 15 15 13 13 13 14 15 16 17 17 18 18 17 17 17 16 15 14 13 11 11 11 11 12 13 14 15 16 18 18 18 18 18 18 19
29 27 28 30 30 28 26 24 25 24 21 18 18 19 19 18 17 16 16 16 16 17 19 19 20 20 19 19 18 18 18 17 16 15 15 14 14 13 14 15 16 19 21 22 23 22 20 19 20
32 31 31 32 32 31 29 28 28 28 26 25 23 21 22 22 22 21 20 20 20 20 21 21 21 21 20 20 20 19 18 18 18 18 18 18 17 17 16 17 19 21 22 24 24 24 22 20 21
35 35 33 32 32 31 31 31 30 30 30 29 27 26 25 25 25 25 25 25 25 24 24 24 24 24 23 23 23 23 22 21 21 21 21 21 22 21 21 21 22 23 24 25 25 25 23 23 23
34 34 32 32 32 31 33 33 30 32 33 31 30 30 30 29 28 30 31 30 30 29 28 28 28 28 27 27 27 27 26 26 25 25 25 26 26 26 25 25 26 27 27 27 28 28 26 27 25
29 28 27 28 28 27 31 32 29 32 35 35 34 34 34 34 33 34 35 34 34 33 32 31 31 31 31 30 30 30 30 30 29 29 29 29 30 29 29 30 30 31 31 31 31 31 30 29 28
23 25 27 27 24 26 30 31 27 29 34 36 37 38 38 38 37 37 36 36 37 37 35 34 34 34 34 33 33 33 32 32 32 32 32 32 32 32 33 33 34 34 34 34 34 34 33 32 31
24 26 27 25 24 27 30 30 26 26 31 35 38 39 40 40 41 41 39 39 40 39 37 37 37 37 37 36 35 35 35 36 36 36 36 36 35 35 35 35 36 36 37 37 38 37 36 36 34
25 26 27 25 23 25 26 25 25 27 31 34 37 39 40 41 41 41 41 38 37 35 36 37 38 39 38 38 38 38 38 38 39 40 40 38 37 36 35 35 36 38 39 40 41 41 40 39 37
27 28 28 28 26 27 27 26 26 28 32 35 37 41 43 43 43 44 43 42 42 40 39 39 40 41 40 40 40 40 40 40 41 41 40 39 38 37 37 37 38 40 41 42 42 43 42 41 39
30 30 31 30 29 30 31 31 30 32 36 39 42 44 45 46 46 44 43 42 42 41 41 40 41 42 41 41 41 40 40 40 40 40 40 39 39 39 39 40 41 42 42 43 43 44 44 42 40
31 32 33 33 33 33 34 38 37 38 40 42 45 46 46 46 45 43 42 41 41 41 41 40 40 41 40 40 41 40 40 39 38 38 38 38 39 39 41 42 42 42 43 43 44 44 44 42 40
27 28 30 32 33 34 34 40 43 42 44 45 47 47 47 46 45 44 43 43 43 42 40 38 38 38 38 38 38 38 38 37 37 37 37 38 39 41 42 44 44 43 43 43 42 42 42 41 39
19 21 22 25 28 31 30 36 42 43 45 47 49 49 49 49 49 48 47 46 45 43 40 39 38 37 37 37 37 37 37 37 38 38 39 40 42 43 44 45 45 44 43 42 40 40 39 38 37
17 19 22 25 25 26 27 31 34 37 41 44 47 49 50 50 50 52 52 51 50 48 45 43 42 41 40 40 40 40 40 40 40 41 42 43 44 45 45 45 44 43 41 39 37 36 36 35 35
18 20 22 26 27 28 27 28 32 35 38 41 44 46 48 49 50 52 54 54 53 51 50 49 47 46 45 45 45 45 44 44 44 44 45 45 46 46 45 43 41 39 36 34 33 32 32 32 32
18 18 20 24 28 30 31 31 32 35 38 41 43 45 47 50 51 51 52 52 52 51 52 51 49 48 47 47 47 46 45 45 45 46 46 45 44 43 41 38 35 33 32 30 29 29 28 28 29
16 18 19 22 26 31 35 35 35 37 40 42 44 45 45 46 48 49 49 48 48 45 44 45 45 44 44 44 44 44 43 43 43 43 42 41 39 38 36 34 33 31 30 28 27 27 26 26 25
17 19 21 24 27 30 35 38 36 37 38 41 44 45 46 45 43 42 41 40 40 39 36 36 38 39 39 38 38 38 39 39 39 38 37 36 36 35 34 33 32 31 30 29 27 26 26 25 24

GEFSSGP_500_meanwind_030.txt.gz
Wind_Speed
10 10 8 6 4 7 9 10 12 14 15 13 10 9 10 9 9 9 10 12 12 12 11 10 9 9 9 9 9 10 10 11 11 10 10 11 12 13 14 15 16 16 16 16 15 14 14 14 13
10 9 7 6 4 6 6 6 8 9 10 10 9 9 8 8 8 8 8 9 10 9 7 6 7 7 6 7 8 8 9 9 9 9 9 9 10 11 12 13 14 15 15 15 15 14 13 13 12
11 9 8 6 4 2 2 3 4 4 5 5 7 7 7 6 6 6 5 6 7 6 5 4 4 5 5 6 7 7 8 9 9 9 9 9 10 10 11 12 13 14 14 15 15 14 13 12 11
13 11 9 7 5 3 2 3 3 3 2 2 3 4 4 3 3 2 3 3 4 3 1 2 3 4 4 5 6 7 7 8 9 9 9 9 9 10 10 11 12 13 14 14 14 14 13 12 11
14 13 11 9 8 6 5 5 6 6 5 4 3 3 2 2 1 1 1 1 1 0 2 2 3 3 4 4 5 6 7 8 9 9 9 8 9 9 9 10 11 12 12 13 13 13 12 11 11
14 14 13 12 11 9 8 7 7 7 6 6 6 6 6 5 4 4 4 3 3 3 4 3 3 3 4 4 5 5 6 7 8 8 8 8 7 8 8 8 9 10 11 11 12 12 12 11 10
12 13 14 13 11 9 9 8 8 8 8 7 8 9 8 8 8 8 7 7 7 7 6 6 5 5 5 5 5 5 5 6 7 7 7 6 6 6 6 7 7 9 10 11 12 12 12 11 10
12 13 15 14 11 10 8 7 7 8 8 8 8 9 10 11 11 11 11 11 10 9 9 8 8 7 7 7 6 6 6 7 7 7 7 6 5 5 5 5 7 8 10 11 12 13 14 14 13
13 14 16 15 13 11 10 8 7 8 9 8 8 9 10 11 11 12 12 12 12 12 11 10 9 9 9 9 8 8 8 9 9 8 8 7 6 6 6 6 7 8 10 11 13 14 15 15 15
16 16 18 18 16 15 13 11 9 9 10 8 7 8 9 10 10 12 13 13 13 13 12 12 11 11 11 11 11 12 12 12 11 10 9 9 8 8 8 7 8 8 9 10 12 13 15 16 16
20 20 22 22 21 19 17 14 12 11 11 9 8 7 8 9 10 11 12 13 14 14 14 13 13 13 13 14 14 14 14 14 13 12 11 10 10 10 10 10 10 9 10 11 12 13 14 16 16
25 24 26 27 26 23 21 19 16 14 14 12 11 10 10 11 11 12 13 14 15 15 15 15 15 16 16 17 17 16 16 16 15 14 14 13 13 12 12 12 12 12 12 12 13 14 15 16 16
30 29 30 30 29 27 26 24 22 20 19 17 15 14 14 15 15 16 16 17 17 17 17 18 18 18 19 19 19 19 18 19 18 16 15 15 15 15 14 14 15 15 14 14 14 15 16 16 17
33 32 32 32 32 31 30 29 27 25 24 23 22 20 19 19 19 20 20 21 21 21 20 21 21 21 22 22 22 22 21 21 20 19 18 18 18 17 16 16 15 15 15 15 15 16 17 18 18
35 34 34 34 35 36 36 34 32 30 29 29 27 26 25 23 22 23 24 24 25 25 25 25 25 25 26 26 26 26 26 25 25 24 22 22 20 19 18 17 17 17 17 17 18 18 19 20 20
39 38 37 37 38 40 41 40 35 35 34 33 32 31 30 28 27 26 26 27 28 28 28 28 28 29 29 31 30 30 30 30 29 28 27 25 23 22 20 19 19 19 19 20 21 21 22 23 23
38 39 40 40 42 43 44 45 40 40 40 38 37 35 34 33 32 30 30 30 30 31 30 31 31 31 32 33 34 33 33 33 32 32 30 29 26 24 23 22 22 21 22 23 24 24 25 25 26
35 37 38 39 41 44 45 46 44 42 43 42 41 40 39 37 36 35 35 34 34 33 33 32 32 33 34 35 36 36 36 36 36 35 34 32 30 28 26 25 24 24 25 26 27 27 28 28 29
28 30 32 34 38 41 42 43 42 41 41 41 41 40 39 39 38 39 38 37 36 36 35 35 35 36 37 38 38 38 39 39 39 38 37 36 34 31 29 28 27 26 27 29 30 30 31 32 33
24 25 26 28 31 34 35 35 36 36 37 37 38 38 38 37 38 38 38 36 37 37 36 35 37 38 38 38 39 41 42 42 42 41 40 39 36 33 30 29 28 28 29 30 31 32 33 34 37
26 26 26 27 27 29 30 30 32 33 33 33 34 34 35 35 36 38 38 38 38 37 37 38 39 39 40 41 42 43 43 43 43 42 41 40 38 35 31 30 29 29 30 30 32 34 35 36 38
27 28 29 28 28 29 30 32 31 32 33 33 33 34 36 37 38 39 40 39 39 39 39 41 41 42 41 41 42 43 43 43 42 41 38 38 35 33 30 28 27 28 29 31 33 35 37 38 39
28 29 30 30 30 30 31 33 34 33 35 36 37 37 39 40 42 42 43 44 44 44 45 45 45 44 44 43 43 42 42 41 39 36 34 33 31 29 28 27 28 29 31 32 34 37 38 39 40
26 27 28 28 29 30 29 32 34 33 36 39 41 42 43 45 46 47 48 49 50 51 51 50 49 48 47 46 44 43 41 39 36 34 32 31 30 29 29 29 31 32 34 35 37 38 39 40 40
21 22 23 24 24 24 25 28 29 29 32 37 41 45 48 50 52 53 54 55 56 56 56 56 55 53 51 50 49 46 42 39 36 33 31 30 30 30 31 33 34 35 37 38 38 39 39 38 38
18 19 21 23 21 20 20 22 21 23 26 30 35 40 45 49 53 56 58 59 60 60 60 58 57 55 54 52 49 46 43 40 38 36 34 33 33 34 35 37 38 38 39 39 39 38 37 35 35
17 18 19 21 21 20 18 18 19 22 26 28 31 34 38 43 47 51 54 57 58 59 58 57 56 55 54 52 49 45 43 41 41 38 37 36 36 37 37 38 39 39 39 38 37 35 34 32 31
17 17 18 20 22 22 19 18 20 22 25 27 30 33 36 39 43 46 50 54 56 57 57 56 55 54 52 51 48 45 42 42 43 40 39 39 39 39 39 39 39 38 37 36 34 32 31 30 29
18 18 19 21 22 25 24 20 23 25 26 28 31 34 37 39 41 44 47 49 50 51 51 51 50 48 47 45 44 42 40 40 41 40 39 39 39 39 38 37 36 35 34 33 32 31 30 29 29
20 20 21 22 23 25 27 24 26 27 29 31 33 35 37 39 40 42 43 44 44 43 43 43 43 42 41 41 40 39 37 36 37 38 37 38 38 36 35 34 34 33 32 32 31 30 30 29 29